カタログに戻る

KYOKKO 1 DEB

運用中UNKNOWN
NORAD 12331·DEBRIS·🇯🇵 Japan

打ち上げ Feb 4, 1978 から Uchinoura Space Center

Loading…

次のパス (今後24時間)

TLE

最新Source: Space-Track

元期: Sep 14, 2026, 08:30 UTC

1 12331U 78014E   26257.35463172  .00000440  00000-0  53239-3 0  9996
2 12331  64.8163 284.7083 1797605   9.8540 353.3181 10.98889737 94392

AllMySatでKYOKKO 1 DEBをリアルタイム追跡

Download on the App Store